Flag for Germany Weather past 2 weeks in Waldkraiburg, Bavaria, Germany

Now
70 °F

Passing clouds.


Feels Like: 69 °F
Forecast: 68 / 83 °F
Wind: 1 mph from Northeast

Location: Muenchen Flughafen

Current Time: Jul 5, 2015 at 11:17:49 PM

Latest Report: Jul 5, 2015 at 11:00 PM


Visibility: 19 mi

Pressure: 29.93 "Hg

Humidity: 85%

Dew point: 65 °F

Location of WaldkraiburgLocation

Historic Weather in Waldkraiburg — Graph

°F

Waldkraiburg temperature yesterday

Maximum temperature yesterday: 90 °F (at 5:00 PM)
Minimum temperature yesterday: 61 °F (at 5:00 AM)
Average temperature yesterday: 76 °F

Past Weeks' High & Low Weather Summary

 TemperatureHumidityPressure
High92 °F (Jul 5, 3:00 PM)100% (Jun 25, 3:00 AM)30.27 "Hg (Jun 25, 3:00 AM)
Low44 °F (Jun 25, 5:00 AM)32% (Jul 5, 3:00 PM)29.74 "Hg (Jun 22, 11:00 PM)
Average66 °F71%30.10 "Hg
* Reported Jun 20 10:00 PM — Jul 5 10:00 PM, Waldkraiburg, Weather by CustomWeather, © 2015

Note: Actual official high and low records may vary slightly from our data, if they occured in-between our weather recording intervals... More about our weather records

Advertising

Waldkraiburg weather history for previous 24 hours

 ConditionsComfort  
Time TempWeatherWind HumidityBarometerVisibility
10:00 PM
Sun, Jul 5
76 °FPassing clouds.2 mph71%29.92 "Hg22 mi
9:00 PM83 °FPassing clouds.3 mph57%29.89 "Hg25 mi
8:00 PM87 °FSunny.3 mph45%29.89 "Hg25 mi
7:00 PM89 °FSunny.5 mph42%29.90 "Hg25 mi
6:00 PM91 °FSunny.5 mph36%29.90 "Hg25 mi
5:00 PM92 °FPassing clouds.5 mph33%29.91 "Hg25 mi
4:00 PM92 °FPassing clouds.6 mph37%29.93 "Hg25 mi
3:00 PM92 °FPassing clouds.5 mph32%29.95 "Hg25 mi
2:00 PM92 °FPassing clouds.5 mph37%29.97 "Hg22 mi
1:00 PM89 °FPassing clouds.5 mph46%29.99 "Hg22 mi
12:00 PM88 °FSunny.3 mph47%30.01 "Hg19 mi
11:00 AM85 °FSunny.2 mph53%30.02 "Hg19 mi
10:00 AM82 °FPassing clouds.1 mph59%30.04 "Hg12 mi
9:00 AM78 °FPassing clouds.2 mph70%30.06 "Hg12 mi
8:00 AM72 °FPassing clouds.2 mph79%30.08 "Hg11 mi
7:00 AM64 °FPassing clouds.1 mph93%30.11 "Hg9 mi
5:00 AM63 °FPassing clouds.No wind92%30.11 "Hg9 mi
4:00 AM64 °FPassing clouds.1 mph93%30.11 "Hg7 mi
3:00 AM65 °FPassing clouds.No wind93%30.11 "Hg12 mi
2:00 AM65 °FPassing clouds.1 mph93%30.12 "Hg12 mi
1:00 AM67 °FPassing clouds.1 mph90%30.11 "Hg12 mi
12:00 AM68 °FPassing clouds.No wind87%30.11 "Hg16 mi
11:00 PM
Sat, Jul 4
71 °FMild.1 mph83%30.11 "Hg11 mi
Weather by CustomWeather, © 2015

See weather overviewHow to use our weather pages